User: anonymous   Login
Location: Krasnoyarskiy Pitomnik
(51.1333°N, 71.6167°E)
Time: 10:19:57
(UTC+00:00)
Language:

DNEPR OBJECT AF - Orbit

View from above orbital plane
View from above orbital plane
View from above satellite
View from above satellite

Ground track
Ground track

The orbit data is extracted from the following two-line orbital elements,

1 39445U 13066AF  24205.87949984  .00011783  00000-0  11302-2 0  9991
2 39445  97.7222 163.8940 0048251  24.8912 335.4619 14.92374960575501
Epoch (UTC): 23 July 2024 21:06:28
Eccentricity: 0.0048251
inclination: 97.7222°
perigee height: 557 km
apogee height: 624 km
right ascension of ascending node: 163.8940°
argument of perigee: 24.8912°
revolutions per day: 14.92374960
mean anomaly at epoch: 335.4619°
orbit number at epoch: 57550

The dashed part of the orbit path shows where the satellite is in the earth's shadow,  

DLR